sat.trackr.live / text

‹ back to catalog

2025-292G

NORAD 66999 · 2025-292G

PAYLOAD ACTIVE UNKNOWN

§ Identity

Operator
Country
PRC
Launch date
2025-12-10
Launch site
JSC
Launch vehicle
Mass (kg)
RCS (m²)

External: N2YO · Heavens-Above · Gunter

§ Orbital elements

Epoch: 2026-05-25T03:26:29.423040Z

Period
95.58 min
Inclination
97.6367°
Eccentricity
0.0017274
Mean motion
15.06556150 rev/d
Perigee alt
534.8 km
Apogee alt
558.7 km
Semi-major
6,924.9 km
B*
3.1915e-4
RAAN
221.2823°
Arg perigee
89.9914°
Mean anomaly
270.3293°
Rev number
2,498

§ Raw data

2025-292G1 66999U 25292G   26145.14339610  .00004675  00000+0  31915-3 0  99972 66999  97.6367 221.2823 0017274  89.9914 270.3293 15.06556150 24983

JSON: /api/v1/satellites/66999 · /tle

For live sub-satellite position, see the globe view (requires WebGL).

§ Visibility from observer

Set your observer location to see the next 7 days of passes ≥ 10°. The values pass through the URL so the page stays shareable.

No JS? Fill the form by hand. The geolocation button needs JavaScript.